Atmospheric History
02/08/2018 18:22  to  2/9/2018 18:22
Change End Date:
To complete the export process:
1) Select all of the data below
2) Copy the data to the clipboard
3) Open a word processor such as Notepad
4) Paste the data into the word processor
5) Save the file

Date/Time (MDT), AirTemp, RH, Dewpoint ,AvgWindSpeed, GustWindSpeed, WindDirection, PrecipType, PrecipIntensity, PrecipAccumulation, PrecipRate
02/09/2018 18:18, 12, 82, 7 ,0, 2, E, None, None, ,  
02/09/2018 18:16, 12, 81, 7 ,1, 2, SE, None, None, ,  
02/09/2018 18:08, 12, 80, 7 ,1, 3, SE, None, None, ,  
02/09/2018 18:01, 12, 80, 7 ,1, 4, E, None, None, ,  
02/09/2018 17:58, 12, 80, 7 ,1, 4, E, None, None, ,  
02/09/2018 17:48, 13, 82, 8 ,1, 4, E, Yes, , ,  
02/09/2018 17:46, 13, 81, 8 ,2, 3, SE, Yes, , ,  
02/09/2018 17:38, 13, 78, 7 ,1, 2, E, Yes, , ,  
02/09/2018 17:31, 13, 76, 7 ,1, 2, NE, Yes, , ,  
02/09/2018 17:28, 13, 75, 7 ,1, 2, NE, Yes, , ,  
02/09/2018 17:18, 13, 76, 7 ,1, 2, E, None, None, ,  
02/09/2018 17:16, 13, 76, 7 ,0, 2, NE, Yes, , ,  
02/09/2018 17:08, 13, 75, 7 ,1, 2, NE, Yes, , ,  
02/09/2018 17:01, 13, 76, 7 ,1, 3, E, Yes, , ,  
02/09/2018 16:58, 13, 75, 7 ,2, 3, E, Yes, , ,  
02/09/2018 16:48, 14, 76, 8 ,0, 3, E, None, None, ,  
02/09/2018 16:46, 14, 74, 7 ,2, 3, SE, Yes, , ,  
02/09/2018 16:37, 14, 76, 8 ,1, 4, E, Yes, , ,  
02/09/2018 16:31, 13, 76, 8 ,2, 4, SE, None, None, ,  
02/09/2018 16:27, 13, 75, 7 ,1, 4, E, Yes, , ,  
02/09/2018 16:17, 14, 73, 7 ,0, 2, E, Yes, , ,  
02/09/2018 16:16, 14, 73, 7 ,1, 2, E, Yes, , ,  
02/09/2018 16:07, 15, 73, 8 ,1, 4, E, Yes, , ,  
02/09/2018 16:01, 15, 72, 7 ,3, 4, NE, None, None, ,  
02/09/2018 15:57, 15, 72, 7 ,3, 4, NE, Yes, , ,  
02/09/2018 15:47, 15, 72, 8 ,1, 5, S, Yes, , ,  
02/09/2018 15:46, 15, 73, 8 ,0, 5, S, Yes, , ,  
02/09/2018 15:37, 15, 73, 8 ,1, 4, E, Yes, , ,  
02/09/2018 15:31, 15, 72, 8 ,1, 4, N, Yes, , ,  
02/09/2018 15:27, 15, 72, 8 ,1, 4, E, Yes, , ,  
02/09/2018 15:17, 15, 71, 7 ,1, 2, SE, Yes, , ,  
02/09/2018 15:16, 15, 70, 7 ,0, 2, SE, Yes, , ,  
02/09/2018 15:07, 14, 68, 6 ,1, 2, NE, Yes, , ,  
02/09/2018 15:01, 15, 72, 8 ,1, 2, E, Yes, , ,  
02/09/2018 14:57, 14, 71, 6 ,1, 2, SE, Yes, , ,  
02/09/2018 14:47, 15, 69, 7 ,2, 4, E, Yes, , ,  
02/09/2018 14:46, 15, 70, 7 ,2, 4, SE, Yes, , ,  
02/09/2018 14:37, 15, 67, 6 ,2, 4, SE, Yes, , ,  
02/09/2018 14:31, 15, 69, 6 ,1, 3, NE, Yes, , ,  
02/09/2018 14:27, 14, 67, 5 ,0, 3, E, Yes, , ,  
02/09/2018 14:17, 15, 70, 7 ,2, 4, NE, Yes, , ,  
02/09/2018 14:16, 14, 72, 7 ,2, 4, NE, Yes, , ,  
02/09/2018 14:07, 13, 70, 5 ,1, 4, NE, Yes, , ,  
02/09/2018 14:01, 13, 66, 4 ,2, 5, NE, Yes, , ,  
02/09/2018 13:57, 13, 66, 4 ,1, 5, NE, Yes, , ,  
02/09/2018 13:47, 13, 70, 5 ,1, 4, SE, Yes, , ,  
02/09/2018 13:46, 13, 71, 6 ,1, 4, E, Yes, , ,  
02/09/2018 13:37, 13, 71, 5 ,2, 4, E, Yes, , ,  
02/09/2018 13:31, 13, 68, 4 ,1, 4, E, Yes, , ,  
02/09/2018 13:26, 13, 70, 5 ,1, 5, SW, Yes, , ,  
02/09/2018 13:16, 12, 71, 4 ,4, 6, NE, Yes, , ,  
02/09/2018 13:16, 12, 71, 4 ,4, 6, NE, Yes, , ,  
02/09/2018 13:06, 12, 73, 5 ,3, 6, E, Yes, , ,  
02/09/2018 13:01, 12, 74, 5 ,1, 5, NE, Yes, , ,  
02/09/2018 12:56, 11, 73, 5 ,1, 6, NE, Yes, , ,  
02/09/2018 12:46, 12, 73, 5 ,2, 6, E, Yes, , ,  
02/09/2018 12:46, 12, 73, 5 ,2, 6, E, Yes, , ,  
02/09/2018 12:36, 12, 74, 5 ,2, 5, E, Yes, , ,  
02/09/2018 12:31, 12, 74, 5 ,1, 5, SE, Yes, , ,  
02/09/2018 12:26, 12, 74, 5 ,2, 4, E, None, None, ,  
02/09/2018 12:16, 11, 75, 5 ,1, 4, E, None, None, ,  
02/09/2018 12:16, 11, 74, 5 ,2, 4, E, None, None, ,  
02/09/2018 12:06, 11, 77, 5 ,4, 6, E, None, None, ,  
02/09/2018 12:01, 11, 76, 5 ,2, 6, NE, None, None, ,  
02/09/2018 11:56, 10, 73, 4 ,2, 6, SE, None, None, ,  
02/09/2018 11:46, 11, 76, 5 ,2, 6, NE, None, None, ,  
02/09/2018 11:46, 11, 76, 5 ,3, 6, NE, None, None, ,  
02/09/2018 11:36, 10, 77, 4 ,2, 6, SE, None, None, ,  
02/09/2018 11:31, 10, 76, 4 ,1, 7, E, None, None, ,  
02/09/2018 11:26, 10, 77, 4 ,2, 7, SE, Yes, , ,  
02/09/2018 11:16, 9, 76, 3 ,3, 7, SE, Yes, , ,  
02/09/2018 11:16, 9, 76, 3 ,3, 7, SE, Yes, , ,  
02/09/2018 11:06, 10, 78, 4 ,4, 7, E, Yes, , ,  
02/09/2018 11:01, 9, 76, 3 ,2, 7, E, Yes, , ,  
02/09/2018 10:56, 10, 79, 4 ,4, 7, NE, Yes, , ,  
02/09/2018 10:46, 9, 81, 4 ,2, 6, E, Yes, , ,  
02/09/2018 10:46, 9, 81, 4 ,2, 6, E, Yes, , ,  
02/09/2018 10:36, 8, 81, 4 ,2, 6, E, Yes, , ,  
02/09/2018 10:31, 8, 81, 4 ,2, 6, E, Yes, , ,  
02/09/2018 10:26, 8, 81, 4 ,2, 6, E, Yes, , ,  
02/09/2018 10:16, 8, 80, 3 ,1, 6, E, Yes, , ,  
02/09/2018 10:16, 8, 80, 3 ,1, 6, E, Yes, , ,  
02/09/2018 10:05, 8, 82, 4 ,2, 4, E, Yes, , ,  
02/09/2018 10:01, 8, 81, 4 ,2, 5, SE, Yes, , ,  
02/09/2018 09:55, 8, 82, 4 ,2, 6, E, Yes, , ,  
02/09/2018 09:46, 8, 82, 3 ,3, 6, E, Yes, , ,  
02/09/2018 09:45, 7, 81, 3 ,3, 6, E, Yes, , ,  
02/09/2018 09:35, 8, 83, 4 ,1, 4, SE, Yes, , ,  
02/09/2018 09:31, 7, 83, 3 ,1, 4, NE, None, None, ,  
02/09/2018 09:25, 7, 84, 3 ,1, 5, E, Yes, , ,  
02/09/2018 09:16, 7, 84, 3 ,1, 6, E, Yes, , ,  
02/09/2018 09:15, 7, 84, 3 ,1, 6, E, Yes, , ,  
02/09/2018 09:05, 7, 85, 3 ,1, 3, SE, Yes, , ,  
02/09/2018 09:01, 6, 85, 3 ,1, 6, E, Yes, , ,  
02/09/2018 08:55, 6, 85, 3 ,2, 6, SE, Yes, , ,  
02/09/2018 08:46, 6, 85, 2 ,2, 6, SE, Yes, , ,  
02/09/2018 08:45, 6, 85, 2 ,2, 6, E, Yes, , ,  
02/09/2018 08:35, 6, 85, 2 ,1, 4, SE, Yes, , ,  
02/09/2018 08:31, 6, 85, 2 ,1, 5, NE, Yes, , ,  
02/09/2018 08:25, 6, 85, 2 ,2, 5, SE, Yes, , ,  
02/09/2018 08:16, 6, 85, 2 ,2, 5, E, Yes, , ,  
02/09/2018 08:15, 6, 85, 2 ,2, 5, NE, Yes, , ,  
02/09/2018 08:05, 6, 85, 2 ,2, 5, NE, Yes, , ,  
02/09/2018 08:01, 6, 85, 2 ,1, 6, E, Yes, , ,  
02/09/2018 07:55, 6, 85, 2 ,1, 6, E, Yes, , ,  
02/09/2018 07:46, 6, 85, 2 ,1, 6, NE, Yes, , ,  
02/09/2018 07:45, 6, 85, 2 ,1, 7, NE, Yes, , ,  
02/09/2018 07:35, 6, 85, 2 ,2, 6, NE, Yes, , ,  
02/09/2018 07:31, 6, 85, 2 ,2, 6, NE, Yes, , ,  
02/09/2018 07:25, 6, 85, 2 ,2, 6, SE, Yes, , ,  
02/09/2018 07:16, 6, 84, 2 ,2, 7, E, Yes, , ,  
02/09/2018 07:15, 6, 84, 2 ,2, 9, E, Yes, , ,  
02/09/2018 07:05, 6, 84, 2 ,2, 7, E, Yes, , ,  
02/09/2018 07:01, 6, 84, 2 ,3, 6, E, Yes, , ,  
02/09/2018 06:55, 6, 85, 3 ,3, 6, E, Yes, , ,  
02/09/2018 06:46, 6, 84, 2 ,1, 4, SE, Yes, , ,  
02/09/2018 06:45, 6, 84, 2 ,1, 4, SE, Yes, , ,  
02/09/2018 06:35, 6, 83, 2 ,1, 6, S, Yes, , ,  
02/09/2018 06:31, 6, 83, 2 ,2, 6, E, Yes, , ,  
02/09/2018 06:24, 7, 84, 3 ,1, 8, E, Yes, , ,  
02/09/2018 06:16, 7, 84, 3 ,3, 5, E, Yes, , ,  
02/09/2018 06:14, 7, 84, 3 ,3, 5, E, Yes, , ,  
02/09/2018 06:04, 7, 85, 3 ,3, 7, NE, None, None, ,  
02/09/2018 06:01, 7, 85, 3 ,4, 7, E, None, None, ,  
02/09/2018 05:54, 7, 85, 3 ,4, 7, E, None, None, ,  
02/09/2018 05:46, 7, 86, 3 ,3, 6, NE, None, None, ,  
02/09/2018 05:44, 7, 86, 3 ,3, 6, E, None, None, ,  
02/09/2018 05:34, 6, 86, 3 ,2, 7, NE, Yes, , ,  
02/09/2018 05:31, 6, 86, 3 ,3, 7, NE, Yes, , ,  
02/09/2018 05:24, 6, 86, 3 ,2, 6, NE, Yes, , ,  
02/09/2018 05:16, 7, 86, 3 ,4, 8, SE, Yes, , ,  
02/09/2018 05:14, 7, 86, 3 ,4, 8, E, Yes, , ,  
02/09/2018 05:04, 7, 86, 3 ,4, 7, E, Yes, , ,  
02/09/2018 05:01, 7, 86, 3 ,4, 7, E, Yes, , ,  
02/09/2018 04:54, 7, 86, 3 ,4, 8, E, Yes, , ,  
02/09/2018 04:46, 7, 85, 4 ,4, 9, NE, Yes, , ,  
02/09/2018 04:44, 7, 86, 4 ,4, 9, NE, Yes, , ,  
02/09/2018 04:34, 8, 86, 5 ,5, 10, NE, Yes, , ,  
02/09/2018 04:31, 8, 86, 4 ,5, 10, NE, Yes, , ,  
02/09/2018 04:24, 8, 86, 4 ,6, 9, E, Yes, , ,  
02/09/2018 04:16, 8, 86, 4 ,2, 6, E, Yes, , ,  
02/09/2018 04:14, 8, 86, 5 ,2, 6, E, Yes, , ,  
02/09/2018 04:04, 8, 86, 5 ,6, 9, E, Yes, , ,  
02/09/2018 04:01, 8, 86, 5 ,2, 9, NE, Yes, , ,  
02/09/2018 03:54, 8, 86, 5 ,3, 10, NE, Yes, , ,  
02/09/2018 03:46, 9, 87, 6 ,2, 7, E, Yes, , ,  
02/09/2018 03:44, 9, 87, 6 ,3, 7, SE, Yes, , ,  
02/09/2018 03:34, 9, 87, 6 ,2, 6, E, Yes, , ,  
02/09/2018 03:31, 9, 87, 6 ,2, 6, E, Yes, , ,  
02/09/2018 03:24, 9, 87, 6 ,2, 7, NE, Yes, , ,  
02/09/2018 03:16, 9, 86, 6 ,1, 7, SE, Yes, , ,  
02/09/2018 03:14, 9, 87, 6 ,3, 7, NE, Yes, , ,  
02/09/2018 03:03, 9, 87, 6 ,1, 7, E, Yes, , ,  
02/09/2018 03:01, 10, 87, 6 ,4, 9, NE, Yes, , ,  
02/09/2018 02:53, 10, 87, 7 ,4, 9, E, Yes, , ,  
02/09/2018 02:46, 10, 88, 7 ,2, 6, SE, Yes, , ,  
02/09/2018 02:43, 10, 87, 7 ,1, 7, SE, Yes, , ,  
02/09/2018 02:33, 10, 87, 7 ,4, 8, E, Yes, , ,  
02/09/2018 02:31, 10, 87, 7 ,4, 8, NE, Yes, , ,  
02/09/2018 02:23, 10, 87, 7 ,6, 10, NE, Yes, , ,  
02/09/2018 02:16, 10, 88, 7 ,4, 11, NE, Yes, , ,  
02/09/2018 02:13, 10, 87, 7 ,4, 11, NE, Yes, , ,  
02/09/2018 02:03, 10, 88, 7 ,4, 7, NE, Yes, , ,  
02/09/2018 02:01, 10, 88, 7 ,5, 9, NE, Yes, , ,  
02/09/2018 01:53, 10, 88, 8 ,6, 9, E, Yes, , ,  
02/09/2018 01:46, 11, 88, 8 ,1, 6, E, Yes, , ,  
02/09/2018 01:43, 11, 88, 8 ,2, 9, S, Yes, , ,  
02/09/2018 01:33, 11, 87, 8 ,3, 7, NE, Yes, , ,  
02/09/2018 01:31, 11, 87, 8 ,3, 7, N, Yes, , ,  
02/09/2018 01:23, 11, 88, 8 ,4, 8, E, Yes, , ,  
02/09/2018 01:16, 11, 87, 8 ,2, 11, E, Yes, , ,  
02/09/2018 01:13, 11, 88, 8 ,6, 11, NE, Yes, , ,  
02/09/2018 01:03, 11, 89, 9 ,5, 12, NE, Yes, , ,  
02/09/2018 01:01, 11, 89, 9 ,3, 9, E, Yes, , ,  
02/09/2018 00:53, 11, 88, 9 ,4, 9, NE, Yes, , ,  
02/09/2018 00:46, 12, 89, 9 ,1, 9, E, Yes, , ,  
02/09/2018 00:43, 12, 88, 9 ,4, 9, E, Yes, , ,  
02/09/2018 00:32, 12, 88, 9 ,1, 9, NW, Yes, , ,  
02/09/2018 00:31, 12, 88, 9 ,1, 9, E, Yes, , ,  
02/09/2018 00:22, 11, 89, 9 ,2, 7, E, Yes, , ,  
02/09/2018 00:16, 11, 87, 8 ,4, 9, N, Yes, , ,  
02/09/2018 00:12, 11, 87, 8 ,4, 9, NE, Yes, , ,  
02/09/2018 00:02, 11, 87, 8 ,2, 7, NE, Yes, , ,  
02/09/2018 00:01, 11, 87, 8 ,6, 7, NE, Yes, , ,  
02/08/2018 23:52, 11, 87, 8 ,3, 12, NE, Yes, , ,  
02/08/2018 23:46, 11, 86, 8 ,4, 15, NE, Yes, , ,  
02/08/2018 23:42, 11, 86, 8 ,5, 15, E, Yes, , ,  
02/08/2018 23:32, 12, 83, 8 ,7, 18, E, Yes, , ,  
02/08/2018 23:31, 12, 80, 7 ,9, 18, NE, Yes, , ,  
02/08/2018 23:22, 13, 76, 7 ,4, 15, E, Yes, , ,  
02/08/2018 23:16, 13, 73, 6 ,2, 11, NE, Yes, , ,  
02/08/2018 23:12, 13, 72, 6 ,6, 12, NE, Yes, , ,  
02/08/2018 23:02, 14, 74, 7 ,4, 14, SE, None, None, ,  
02/08/2018 23:01, 14, 72, 7 ,6, 14, E, None, None, ,  
02/08/2018 22:52, 14, 73, 7 ,4, 9, E, None, None, ,  
02/08/2018 22:46, 14, 73, 8 ,1, 6, E, Yes, , ,  
02/08/2018 22:42, 14, 72, 7 ,2, 7, E, None, None, ,  
02/08/2018 22:32, 15, 72, 7 ,4, 17, E, None, None, ,  
02/08/2018 22:31, 15, 73, 8 ,3, 17, E, None, None, ,  
02/08/2018 22:22, 15, 70, 7 ,3, 10, E, None, None, ,  
02/08/2018 22:16, 15, 70, 8 ,4, 10, NE, None, None, ,  
02/08/2018 22:12, 16, 73, 9 ,5, 10, E, None, None, ,  
02/08/2018 22:02, 16, 72, 9 ,4, 14, E, None, None, ,  
02/08/2018 22:01, 16, 72, 9 ,4, 14, NE, None, None, ,  
02/08/2018 21:52, 16, 74, 10 ,2, 9, E, None, None, ,  
02/08/2018 21:46, 16, 72, 9 ,5, 11, NE, None, None, ,  
02/08/2018 21:42, 16, 71, 9 ,3, 11, E, None, None, ,  
02/08/2018 21:32, 17, 72, 9 ,6, 12, E, None, None, ,  
02/08/2018 21:31, 17, 71, 9 ,5, 12, E, None, None, ,  
02/08/2018 21:21, 17, 70, 9 ,6, 15, E, None, None, ,  
02/08/2018 21:16, 17, 71, 10 ,7, 15, E, None, None, ,  
02/08/2018 21:11, 18, 73, 11 ,5, 13, NE, None, None, ,  
02/08/2018 21:01, 18, 71, 10 ,9, 16, NE, None, None, ,  
02/08/2018 21:01, 18, 72, 10 ,9, 16, NE, None, None, ,  
02/08/2018 20:51, 18, 71, 11 ,7, 16, E, None, None, ,  
02/08/2018 20:46, 19, 72, 11 ,5, 15, NE, None, None, ,  
02/08/2018 20:41, 19, 74, 12 ,6, 15, E, None, None, ,  
02/08/2018 20:31, 19, 73, 12 ,6, 12, NE, None, None, ,  
02/08/2018 20:31, 20, 74, 13 ,4, 12, NE, None, None, ,  
02/08/2018 20:21, 20, 73, 13 ,4, 14, E, None, None, ,  
02/08/2018 20:16, 20, 73, 13 ,5, 14, E, None, None, ,  
02/08/2018 20:11, 20, 75, 13 ,5, 11, E, None, None, ,  
02/08/2018 20:01, 21, 76, 14 ,4, 14, E, None, None, ,  
02/08/2018 20:01, 21, 76, 14 ,5, 14, E, None, None, ,  
02/08/2018 19:51, 21, 74, 14 ,7, 15, NE, None, None, ,  
02/08/2018 19:46, 22, 74, 15 ,3, 14, SE, None, None, ,  
02/08/2018 19:41, 22, 77, 16 ,5, 14, E, None, None, ,  
02/08/2018 19:31, 23, 75, 17 ,4, 15, E, None, None, ,  
02/08/2018 19:31, 23, 75, 17 ,4, 15, E, None, None, ,  
02/08/2018 19:21, 24, 73, 17 ,7, 11, E, None, None, ,  
02/08/2018 19:16, 25, 76, 19 ,4, 12, SE, None, None, ,  
02/08/2018 19:11, 26, 76, 19 ,4, 12, E, None, None, ,  
02/08/2018 19:01, 28, 80, 23 ,6, 12, E, None, None, ,  
02/08/2018 19:01, 28, 80, 23 ,6, 12, E, None, None, ,  
02/08/2018 18:51, 30, 84, 26 ,3, 10, SE, None, None, ,  
02/08/2018 18:46, 32, 95, 31 ,6, 9, NE, None, None, ,  
02/08/2018 18:41, 33, 97, 32 ,1, 2, E, None, None, ,  
02/08/2018 18:31, 33, 96, 32 ,0, 2, SW, None, None, ,  
02/08/2018 18:31, 33, 96, 32 ,0, 2, SW, None, None, ,  
Change End Date:

Copyright © 1998-2015 Vaisala, Inc.
All Rights Reserved
Send comments about the data to:
SCAN Web ® is a registered trademark of Vaisala, Inc.
SCAN Web Version 6.0